Preview of NWS' New Version of Forecast
This preview is not operational and should not be used for support decisions.

Regional Weather Roundup (RWR)

Issued by National Weather Service (NWS)

                            
000
ASUS45 KBOU 192110
RWRCO 

WEATHER ROUNDUP FOR COLORADO
NATIONAL WEATHER SERVICE DENVER/BOULDER CO
200 PM MST TUE FEB 19 2019

NOTE: "FAIR" INDICATES FEW OR NO CLOUDS BELOW 12000 FEET WITH NO
SIGNIFICANT WEATHER AND/OR OBSTRUCTIONS TO VISIBILITY.

COZ001>005-013-030-031-192200-
...NORTHWEST COLORADO...
  
CITY           SKY/WX    TMP DP  RH WIND       PRES   REMARKS
CRAIG          PTSUNNY   14   5  67 W9        29.81F WCI   2          
HAYDEN         FAIR      11   4  73 W9        29.79F WCI  -2          
MEEKER         LGT SNOW  19  10  68 E5        29.77F VSB 3/4 WCI  12  
RANGELY        FAIR      21   7  54 NW5       29.84F WCI  15          
RABBIT EARS PA FOG        3   0  85 W14       29.54S VSB 1   WCI -15  
STEAMBOAT SPGS CLOUDY    14   3  63 S7        29.74F WCI   3          
WALDEN         CLOUDY    10   3  72 N13       29.65S WCI  -5          
$$

COZ006>008-011-192200-
...WEST CENTRAL VALLEYS...
  
CITY           SKY/WX    TMP DP  RH WIND       PRES   REMARKS
GRAND JUNCTION FAIR      29  17  61 NW15      29.80F WCI  18          
MONTROSE       CLOUDY    26  14  60 NW15      29.77F WCI  14          
EAGLE          PTSUNNY   29  12  49 W9        29.68F WCI  20          
RIFLE          PTSUNNY   27  10  49 W12       29.75F WCI  17          
DELTA          FAIR      36  15  42 W21G26    29.73F                  
NUCLA          FAIR      28  12  50 NW10      29.78F WCI  19          
$$

COZ017>023-064>068-192200-
...SOUTHWEST COLORADO...
  
CITY           SKY/WX    TMP DP  RH WIND       PRES   REMARKS
DURANGO        FAIR      25  18  74 SW9       29.67F WCI  15          
CORTEZ         CLOUDY    28  13  53 NW9G20    29.75F WCI  19          
PAGOSA SPRINGS LGT SNOW  23  16  75 SW8       29.65F WCI  14          
TELLURIDE      LGT SNOW  14   9  79 W9G16     29.64S WCI   2          
WOLF CREEK PAS CLOUDY     3   1  92 SW20G29   29.54F WCI -18          
$$

COZ009-010-012-014-032>034-037-058>063-192200-
...CENTRAL COLORADO...
  
CITY           SKY/WX    TMP DP  RH WIND       PRES   REMARKS
ASPEN          CLOUDY    20   9  62 NW10      29.62F WCI   9          
BUENA VISTA    PTSUNNY   18   9  69 W3        29.57F                  
COPPER MTN     LGT SNOW   9   1  72 MISG      29.47F VSB 3/4          
BERTHOUD PASS  CLOUDY     0 -11  60 NE7       29.44F WCI -13          
COTTONWOOD PAS CLOUDY    18  12  79 CALM      29.52F                  
GUNNISON       LGT SNOW  20  13  74 E6        29.62F WCI  12          
GRANBY         CLOUDY    20   8  60 SW13      29.60F WCI   7          
KREMMLING      CLOUDY    21  10  63 N5        29.66S WCI  15          
LEADVILLE      LGT SNOW  13   6  74 N7        29.51S WCI   3          
MONARCH PASS   CLOUDY     5   0  78 MISG      29.58F                  
SALIDA         CLOUDY    21  11  63 CALM      29.66F                  
SUNLIGHT       LGT SNOW   5   1  85 W8        29.60S WCI  -8          
WILKERSON PASS FAIR      18   5  57 SW9       29.52S WCI   6          
$$

COZ069>075-192200-
...SAN LUIS VALLEY/SANGRE DE CRISTO MOUNTAINS...
  
CITY           SKY/WX    TMP DP  RH WIND       PRES   REMARKS
ALAMOSA        CLOUDY    24  14  65 S16       29.58F WCI  11          
DEL NORTE      FAIR      21  14  72 E6        29.59F WCI  14          
LA VETA PASS   NOT AVBL                                               
SAGUACHE       LGT SNOW  27  16  63 CALM      29.59F                  
$$

COZ035-036-038>040-192200-
...NORTHERN COLORADO FRONT RANGE...
  
CITY           SKY/WX    TMP DP  RH WIND       PRES   REMARKS
DENVER INTL AP CLOUDY    19   9  65 VRB5      29.73F WCI  12          
AURORA         CLOUDY    18   9  69 NW7       29.73F WCI   8          
FRONT RANGE AP LGT SNOW  21  12  68 NW10      29.74F WCI  10          
ERIE MUNI ARPT LGT SNOW  20  12  70 N8        29.82F WCI  11          
BOULDER MUN AP CLOUDY    21  12  68 NW5       29.75F HAZE    WCI  15  
CENTENNIAL     FLURRIES  16  10  77 N9        29.71F WCI   4          
BROOMFIELD     CLOUDY    19  12  73 NE7       29.73F HAZE    WCI  10  
FORT COLLINS   FLURRIES  21  13  71 N5        29.78F WCI  15          
LONGMONT       CLOUDY    25  11  55 NE7       29.79F HAZE    WCI  17  
$$

COZ041-046-047-076>085-087-088-192200-
...PIKES PEAK/PALMER DIVIDE AND SOUTHERN FOOTHILLS...
  
CITY           SKY/WX    TMP DP  RH WIND       PRES   REMARKS
COLO. SPRINGS  LGT SNOW  15   8  73 E7        29.69F FOG     WCI   5  
A. F. ACADEMY  CLOUDY    15   6  66 CALM      29.66F                  
SCHRIEVER AFB  NOT AVBL                                               
CHEYENNE MTN   LGT SNOW  10   9  93 CALM      29.59F                  
ELLICOTT       NOT AVBL                                               
FALCON         LGT SNOW  14   5  66 SE3       29.67F                  
FORT CARSON    CLOUDY    16   9  71 CALM      29.70F                  
LIMON          LGT SNOW  15  11  83 S10       29.75F FOG     WCI   2  
MONUMENT HILL  FLURRIES  16   9  73 NW7       29.65F WCI   6          
CANON CITY     CLOUDY    25  14  63 NE8       29.71F WCI  16          
WALSENBURG     NOT AVBL                                               
TRINIDAD       FAIR      29  21  72 NE10      29.65F WCI  20          
$$

COZ042>045-048>051-090-091-192200-
...NORTHEAST COLORADO...
  
CITY           SKY/WX    TMP DP  RH WIND       PRES   REMARKS
GREELEY ARPT   CLOUDY    23   9  55 NE7       29.79F WCI  15          
AKRON          LGT SNOW  17  12  80 SE14      29.80F WCI   3          
BURLINGTON     CLOUDY    18  14  84 SE12      29.85F FOG     WCI   5  
WRAY           LGT SNOW  21  16  79 SE10G17   29.92F WCI  10          
YUMA           LGT SNOW  18  12  79 SE12      29.87F WCI   5          
STERLING       FLURRIES  21  12  68 S12G20    29.86F WCI   9          
HOLYOKE        LGT SNOW  21  14  73 SE13      29.92F WCI   9          
FORT MORGAN    FLURRIES  23  10  57 SE8       29.81F WCI  14          
$$

COZ086-089-092>099-192200-
...SOUTHEAST COLORADO...
  
CITY           SKY/WX    TMP DP  RH WIND       PRES   REMARKS
PUEBLO         PTSUNNY   23  14  68 E6        29.76F WCI  16          
LA JUNTA       CLOUDY    28  20  71 E10       29.77F WCI  19          
LAMAR          CLOUDY    25  19  78 SE15G28   29.83F WCI  13          
SPRINGFIELD      N/A     20  17  88 S17       29.82F WCI   5          
$$